www.pogodaiklimat.ru

Погода и климат >> Архив погоды >> Россия >> Якутия >> Крест-Хальджай


ПОГОДА в Крест-Хальджае

  • Прогноз погоды в Крест-Хальджае
  • Монитор погоды в Крест-Хальджае

АРХИВ ПОГОДЫ в Крест-Хальджае

Время (UTC), дата Ветер
(напр.,м/с)
 
Видим.   Явления Облачность Т
(С)
Тd
(С)
f
(%)
Тe
(С)
Тes
(С)
Комфортность P
(гПа)
Po
(гПа)
Тmin
(С)
Tmax
(С)
R
(мм)
R24
(мм)
S
(см)
12 15.01 штиль 0 н/о н/о -41.4 -45.9 61 -41 -41 опасность
обморожения
1029.1 1010.6 -39.8
15 15.01 штиль 0 н/о н/о -41.5 -46.2 60 -42 -42 опасность
обморожения
1029.6 1011.1
18 15.01 штиль 0 н/о н/о -42.6 -47.3 60 -43 -43 опасность
обморожения
1029.7 1011.1
21 15.01 штиль 0 10 км дымка ясно -42.0 -44.4 77 -42 -42 опасность
обморожения
1029.7 1012.4 -42.0 0.3 27
00 16.01 штиль 0 10 км дымка ясно -41.4 -43.8 77 -41 -41 опасность
обморожения
1030.6 1013.4
03 16.01 ЮЗ 1 50 км 4/0
[Ci fib]
-40.5 -42.7 79 -46 -45 опасность
обморожения
1031.6 1014.4
06 16.01 ЮЗ 1 50 км 6/0
[Ci fib]
-41.3 -43.2 82 -47 -47 опасность
обморожения
1032.5 1015.3
09 16.01 штиль 0 50 км 6/0
[Ci fib]
-42.1 -44.4 78 -42 -42 опасность
обморожения
1034.7 1017.3 -40.5
12 16.01 штиль 0 н/о н/о -43.7 -48.6 58 -44 -44 опасность
обморожения
1036.9 1018.0 -41.1
15 16.01 штиль 0 н/о н/о -44.4 -49.3 58 -44 -44 опасность
обморожения
1036.9 1018.0
18 16.01 штиль 0 н/о н/о -45.4 -50.5 56 -45 -45 опасность
обморожения
1036.8 1017.8
21 16.01 штиль 0 10 км дымка ясно -45.3 -47.2 81 -45 -45 опасность
обморожения
1036.1 1018.5 -45.3 27
00 17.01 штиль 0 10 км дымка ясно -46.5 -49.0 75 -47 -47 опасность
обморожения
1036.0 1018.2
03 17.01 штиль 0 50 км ясно -43.9 -45.7 82 -44 -44 опасность
обморожения
1034.6 1017.2
06 17.01 штиль 0 50 км ясно -41.5 -43.8 78 -42 -42 опасность
обморожения
1033.2 1016.0
09 17.01 штиль 0 10 км дымка ясно -45.0 -47.2 78 -45 -45 опасность
обморожения
1033.3 1015.8 -41.5
12 17.01 штиль 0 н/о н/о -47.4 -52.7 54 -47 -47 опасность
обморожения
1032.4 1013.3 -42.1
15 17.01 штиль 0 н/о н/о -48.3 -53.6 54 -48 -48 опасность
обморожения
1030.8 1011.7
18 17.01 штиль 0 н/о н/о -48.3 -53.7 53 -48 -48 опасность
обморожения
1029.8 1010.7
21 17.01 штиль 0 10 км дымка ясно -47.5 -49.0 84 -48 -48 опасность
обморожения
1028.4 1010.7 -48.3 27
00 18.01 штиль 0 10 км дымка ясно -47.0 -49.0 80 -47 -47 опасность
обморожения
1027.1 1009.5
03 18.01 штиль 0 50 км ясно -45.1 -47.2 79 -45 -45 опасность
обморожения
1026.2 1008.7
06 18.01 штиль 0 50 км ясно -42.6 -45.0 77 -43 -43 опасность
обморожения
1025.6 1008.4
09 18.01 штиль 0 50 км ясно -45.2 -47.2 80 -45 -45 опасность
обморожения
1025.7 1008.2 -42.6
12 18.01 штиль 0 н/о н/о -47.6 -52.8 55 -48 -48 опасность
обморожения
1026.7 1007.7 -43.4
15 18.01 штиль 0 н/о н/о -47.8 -53.2 53 -48 -48 опасность
обморожения
1026.6 1007.6
18 18.01 штиль 0 н/о н/о -48.8 -54.2 53 -49 -49 опасность
обморожения
1026.8 1007.7
21 18.01 штиль 0 10 км дымка ясно -47.9 -50.0 79 -48 -48 опасность
обморожения
1026.4 1008.6 -47.9 27
00 19.01 штиль 0 10 км дымка ясно -48.9 -51.2 77 -49 -49 опасность
обморожения
1027.4 1009.6
03 19.01 штиль 0 10 км дымка ясно -46.4 -48.1 83 -46 -46 опасность
обморожения
1028.1 1010.5
06 19.01 штиль 0 10 км дымка ясно -44.4 -46.4 80 -44 -44 опасность
обморожения
1028.0 1010.5
09 19.01 штиль 0 10 км дымка ясно -46.5 -49.0 75 -47 -47 опасность
обморожения
1029.2 1011.6 -44.4
12 19.01 штиль 0 н/о н/о -48.6 -53.9 54 -49 -49 опасность
обморожения
1030.5 1011.4 -44.2
15 19.01 штиль 0 н/о н/о -48.6 -53.9 54 -49 -49 опасность
обморожения
1029.9 1010.8
18 19.01 штиль 0 н/о н/о -48.8 -54.3 52 -49 -49 опасность
обморожения
1029.5 1010.4
21 19.01 штиль 0 10 км дымка ясно -48.0 -50.0 80 -48 -48 опасность
обморожения
1028.7 1010.9 -49.1 27
00 20.01 штиль 0 50 км дымка ясно -48.2 -50.0 81 -48 -48 опасность
обморожения
1027.4 1009.6
03 20.01 штиль 0 50 км дымка ясно -45.4 -47.2 82 -45 -45 опасность
обморожения
1024.6 1007.2
06 20.01 штиль 0 50 км дымка ясно -43.0 -45.0 80 -43 -43 опасность
обморожения
1023.7 1006.4
09 20.01 штиль 0 50 км дымка ясно -45.2 -47.2 80 -45 -45 опасность
обморожения
1023.0 1005.6 -43.0
12 20.01 штиль 0 н/о н/о -47.8 -53.2 53 -48 -48 опасность
обморожения
1022.7 1003.8 -43.9
15 20.01 штиль 0 н/о н/о -47.9 -53.2 54 -48 -48 опасность
обморожения
1021.9 1002.9
18 20.01 штиль 0 н/о н/о -48.2 -53.6 53 -48 -48 опасность
обморожения
1021.4 1002.5
21 20.01 штиль 0 10 км дымка ясно -47.5 -50.0 75 -48 -48 опасность
обморожения
1021.0 1003.4 -47.5 27
00 21.01 штиль 0 10 км дымка ясно -47.5 -50.0 75 -48 -48 опасность
обморожения
1020.4 1002.8
03 21.01 штиль 0 50 км ясно -44.1 -46.4 78 -44 -44 опасность
обморожения
1019.8 1002.5
06 21.01 штиль 0 50 км ясно -42.4 -44.4 81 -42 -42 опасность
обморожения
1018.6 1001.5
09 21.01 штиль 0 10 км дымка ясно -44.0 -46.4 77 -44 -44 опасность
обморожения
1018.6 1001.4 -42.4
12 21.01 штиль 0 н/о н/о -44.0 -48.9 58 -44 -44 опасность
обморожения
1020.5 1001.9 -42.0
18 21.01 штиль 0 н/о н/о -41.5 -46.3 59 -42 -42 опасность
обморожения
1022.2 1003.8
21 21.01 штиль 0 50 км 10/0
[Cs]
-40.3 -42.7 78 -40 -40 опасность
обморожения
1022.1 1005.0 -44.0 27
00 22.01 штиль 0 50 км 10/0
[Cs]
-38.8 -41.2 78 -39 -39 опасность
обморожения
1022.7 1005.8
03 22.01 штиль 0 50 км 6/0
[Ci fib]
-36.0 -38.4 78 -36 -36 опасность
обморожения
1023.2 1006.4
06 22.01 штиль 0 50 км 5/0
[Ac trans Ci fib]
-34.0 -36.2 80 -34 -34 опасность
обморожения
1024.5 1007.9
09 22.01 штиль 0 50 км 4/0
[Ci fib]
-35.0 -37.4 79 -35 -35 опасность
обморожения
1025.9 1009.2 -33.9

 

Местоположение метеостанции Крест-Хальджай (Якутия, Россия): широта 62.82 долгота 134.40 высота над уровнем моря 115 м.

В архиве по умолчанию представлена погода в Крест-Хальджае за последнюю неделю. Архивные данные за месяц целиком и за предыдущие месяцы, начиная с января 2011 года, Вы можете получить, выбрав интересующий диапазон дат из раскрывающегося списка и нажав кнопку "Ввод!".


*Определитесь, кто Вы:
робот инопланетянин человек

Внимание! Время в таблицах - всемирное. Для получения местного времени необходимо прибавить поправку, которая равна 9 ч.

Смотрите также архив погоды в соседних городах и на ближайших метеорологических станциях:

Погода в Ытык-Кюёле (Якутия, Россия) (68 км)
Погода в Охотском Перевозе (Якутия, Россия) (120 км)
Погода в Теплом Ключе (Якутия, Россия) (122 км)
Погода в Чурапче (Якутия, Россия) (128 км)
Погода в Верхоянском Перевозе (Якутия, Россия) (133 км)
Погода в Томпо (Якутия, Россия) (144 км)
Погода в Сеген-Кюеле (Якутия, Россия) (243 км)
Погода в Намцах (Якутия, Россия) (244 км)
Погода в Амге (Якутия, Россия) (251 км)
Погода в Батамае (Якутия, Россия) (263 км)

Пояснения к столбцам:

Ветер - указаны скорость ветра в м/с - средняя за 10 мин, порывы в срок и между сроками (в фигурных скобках) и направление, откуда дует ветер: С - северный, СВ - северо-восточный, В - восточный, ЮВ - юго-восточный, Ю - южный, ЮЗ - юго-западный, З - западный, СЗ - северо-западный.
Видимость - горизонтальная дальность видимости в метрах или километрах. При видимости от 1 до 10 км при отсутствии осадков обычно наблюдается дымка, при ухудшении видимости до 1 км и менее - туман. В сухую погоду видимость может ухудшаться дымом, пылью или мглою.
Явления - указаны атмосферные явления, наблюдавшиеся в срок или в последний час перед сроком; фигурными скобками обозначены явления, наблюдавшиеся между сроками (за 1-3 часа до срока); квадратными скобками обозначены град или гололедные отложения с указанием их диаметра в мм.
Облачность - указаны через наклонную черту общая и нижняя облачность в баллах и высота нижней границы облаков в метрах; квадратными скобками обозначены формы облаков: Ci - перистые, Cs - перисто-слоистые, Cc - перисто-кучевые, Ac - высококучевые, As - высокослоистые, Sc - слоисто-кучевые, Ns - слоисто-дождевые, Cu - кучевые, Cb - кучево-дождевые. Подробнее классификацию облаков см. в Атласе облаков (PDF).
T - Температура воздуха - температура, измеренная на высоте 2 м над землей.
Td - Температура точки росы - температура, при понижении до которой содержащийся в воздухе водяной пар достигнет насыщения.
f - Относительная влажность воздуха - влажноcть воздуха, измеренная на высоте 2 м над землей.
Te - Эффективная температура - температура, которую ощущает одетый по сезону человек в тени. Характеристика душности погоды. При расчете учитывается влияние влажности воздуха и скорости ветра на теплоощущения человека.
Tes - Эффективная температура на солнце - температура, которую ощущает человек, с поправкой на солнечный нагрев. Характеристика знойности погоды. Зависит от высоты солнца над горизонтом, облачности и скорости ветра. Ночью, в пасмурную погоду, а также при ветре 12 м/с и более поправка равна нулю.
P - Атмосферное давление - приведенное к уровню моря атмосферное давление.
Po - Атмосферное давление - измеренное на уровне метеостанции атмосферное давление.
Tmin - Минимальная температура - минимум температуры воздуха на высоте 2 м над землей.
Tmax - Максимальная температура - максимум температуры воздуха на высоте 2 м над землей.
R - Количество осадков - Количество выпавших осадков за период времени, мм. При наведении курсора мыши на число - период времени, за который выпало указанное количество осадков.
R24 - Количество осадков - Количество выпавших осадков за 24 часа, мм.
S - Снежный покров - Высота снежного покрова, см. При наведении курсора мыши на число - состояние снежного покрова и степень покрытия местности в баллах.